Location: Chenango Forks
(42.2242°N, 75.8278°W)
Time: 01:07:17
(UTC-04:00)

Daily predictions for brighter satellites

Satellite Brightness Start Highest point End
(mag) Time Altitude Azimuth Time Altitude Azimuth Time Altitude Azimuth
H-2A R/B 4.3 00:04:42 11° WSW 00:06:24 12° W 00:08:27 10° WNW
Cosmos 1953 Rocket 4.3 00:07:55 44° ENE 00:07:55 44° ENE 00:11:27 10° NNE
SME Rocket 3.6 00:07:11 72° SSE 00:07:47 86° ENE 00:12:18 10° NNW
Cosmos 1825 Rocket 3.9 00:12:07 59° NNE 00:12:07 59° NNE 00:15:41 10° N
Cosmos 1805 4.1 00:08:28 10° N 00:11:23 48° NNW 00:11:23 48° NNW
USA 267 3.4 00:07:26 10° NE 00:13:58 74° NW 00:19:33 15° WSW
CZ-2C R/B 3.1 00:22:49 72° ESE 00:23:08 74° ENE 00:28:43 10° N
Cosmos 2082 Rocket 3.3 00:24:51 25° WSW 00:27:31 38° WNW 00:32:47 10° N
SeaSat 1 2.5 00:29:44 72° W 00:29:44 72° W 00:34:24 10° NNW
Cosmos 972 Rocket 4.1 00:29:16 10° NNW 00:34:36 63° ENE 00:34:39 63° ENE
Cosmos 1953 3.3 00:31:57 10° NNW 00:34:56 44° NW 00:34:56 44° NW
CZ-4B R/B 4.1 00:37:24 14° NE 00:37:24 14° NE 00:38:17 10° NNE
Cosmos 2360 4.1 00:33:50 10° NNW 00:39:33 73° WSW 00:39:39 73° WSW
Cosmos 1934 Rocket 3.9 00:34:03 10° N 00:40:28 86° E 00:41:19 69° SSE
Geosat 4.4 00:35:56 10° NE 00:40:12 52° E 00:40:12 52° E
USA 229 DEB 3.7 00:37:20 10° NW 00:44:29 77° WSW 00:45:48 61° S
CZ-2C R/B 2.6 00:38:53 10° N 00:44:32 80° WNW 00:44:57 74° SW
USA 229 3.7 00:37:26 10° NW 00:44:35 78° WSW 00:45:55 61° S
SL-24 R/B - RUBIN 2 4.4 00:46:32 65° SSW 00:47:39 88° SE 00:54:13 10° NE
Meteor 2-5 Rocket 4.0 00:47:56 57° ESE 00:48:15 58° E 00:54:05 10° NNE
USA 234 3.3 00:45:40 38° ESE 00:48:24 75° NE 00:54:56 10° NW
ATLAS CENTAUR R/B 3.0 00:49:00 10° NNW 00:51:45 27° NNE 00:51:45 27° NNE
SL-16 R/B 2.3 00:47:50 10° NNW 00:53:30 64° ENE 00:54:09 59° E
Cosmos 1697 Rocket 4.0 00:49:39 10° NW 00:53:56 26° W 00:53:56 26° W
Cosmos 494 Rocket 4.0 00:57:25 73° ENE 00:57:25 73° ENE 01:02:12 10° NNE
Cosmos-2242 3.6 00:53:08 10° N 00:56:30 53° NNW 00:56:30 53° NNW
H-2A R/B 4.3 00:57:58 10° NE 01:00:29 24° ENE 01:00:29 24° ENE
Lacrosse 5 rocket 3.5 00:59:40 10° NNW 01:03:42 28° NNE 01:06:52 14° E
Lacrosse 5 2.9 01:18:10 34° E 01:18:10 34° E 01:21:32 10° ENE
Cosmos 1727 Rocket 3.8 01:17:49 72° S 01:18:32 90° ESE 01:24:48 10° N
Cosmos 2221 4.0 01:14:52 10° NNE 01:18:30 29° ENE 01:18:30 29° ENE
Cosmos 1110 Rocket 4.5 01:13:50 10° NNW 01:18:20 48° W 01:18:20 48° W
Cosmos 2098 Rocket 3.6 01:15:35 10° NNW 01:19:03 58° NW 01:19:03 58° NW
Cosmos 1331 Rocket 4.4 01:15:55 10° NNW 01:20:22 52° WNW 01:20:22 52° WNW
Cosmos 1842 Rocket 4.0 01:17:26 10° N 01:21:16 63° NNE 01:21:16 63° NNE
Cosmos 1339 Rocket 4.3 01:23:56 70° SSW 01:24:44 85° W 01:31:06 10° N
Cosmos 1302 Rocket 3.9 01:20:01 10° NNW 01:25:14 87° NW 01:25:14 87° NW
ISS -0.7 01:26:22 10° NW 01:28:33 16° N 01:30:42 10° NE
Cosmos 2251 Rocket 3.7 01:29:18 60° W 01:29:37 61° WNW 01:34:58 10° NNE
Cosmos 1605 Rocket 4.1 01:25:34 10° NNW 01:31:29 55° W 01:31:59 53° WSW
Landsat 5 4.0 01:34:54 62° NNW 01:34:54 62° NNW 01:38:45 10° NNW
BREEZE-M DEB (TANK) 4.1 01:35:05 24° WNW 01:37:00 45° N 01:47:26 10° ENE
Cosmos 1153 Rocket 4.4 01:31:56 10° NNW 01:38:07 73° W 01:38:54 65° SW
Meteor 1-16 Rocket 4.3 01:34:09 10° NNW 01:39:16 55° W 01:39:16 55° W
Cosmos 2360 Rocket 2.5 01:34:17 10° NNW 01:39:55 61° ENE 01:41:16 47° ESE
Cosmos 1980 Rocket 4.0 01:36:38 10° WNW 01:39:36 18° W 01:39:36 18° W
Meteor 1-24 Rocket 3.7 01:44:07 69° SW 01:44:50 80° W 01:50:54 10° N
Cosmos 2322 Rocket 2.7 01:43:23 10° NW 01:48:24 45° W 01:48:24 45° W
Cosmos 1908 4.5 01:46:17 10° N 01:49:36 37° ENE 01:49:36 37° ENE
Cosmos 2173 Rocket 3.9 01:45:09 10° N 01:51:19 83° E 01:52:26 62° SSE
Okean 3 Rocket 3.7 01:57:49 73° NE 01:57:49 73° NE 02:02:03 10° N
Cosmos 2333 Rocket 4.4 01:54:21 10° N 01:58:44 22° NE 02:03:05 10° E
PSLV R/B 3.8 01:56:30 10° NNE 02:00:18 60° ENE 02:00:18 60° ENE
CZ-2D R/B 4.5 02:04:40 10° ENE 02:06:55 13° E 02:09:10 10° ESE
CZ-4B R/B 4.2 02:10:59 11° NW 02:10:59 11° NW 02:11:08 10° NW
NOSS 3-1 (C) 4.3 02:04:18 10° NW 02:11:41 50° WSW 02:13:13 45° SSW
SL-16 R/B 4.3 02:08:58 10° ESE 02:13:58 27° ENE 02:19:00 10° N
Cosmos 1184 Rocket 4.3 02:17:44 36° N 02:17:44 36° N 02:19:51 10° N
Cosmos 1802 Rocket 3.9 02:12:06 10° NNW 02:18:23 72° W 02:19:43 55° SSW
Cosmos 1459 Rocket 4.1 02:12:39 10° NNW 02:18:54 60° W 02:20:07 51° SW
Cosmos 1408 Rocket 3.5 02:26:02 71° ESE 02:26:09 72° E 02:30:30 10° NNE
Cosmos 2219 Rocket 3.4 02:21:03 10° N 02:26:23 40° ENE 02:31:42 10° SE
Meteor 1-21 Rocket 4.2 02:25:16 55° S 02:26:39 87° E 02:32:35 10° N
Cosmos 2100 Rocket 4.3 02:22:45 10° NNW 02:28:33 46° W 02:29:30 43° WSW
Cosmos 1766 Rocket 3.4 02:29:18 80° SE 02:29:25 81° E 02:33:49 10° N
Cosmos 1340 Rocket 3.3 02:30:29 52° NW 02:30:29 52° NW 02:33:51 10° N
USA 234 4.1 02:32:58 30° WSW 02:32:58 30° WSW 02:37:28 10° WNW
Cosmos 2061 Rocket 4.2 02:26:06 10° NNW 02:32:05 52° W 02:33:16 45° SW
Cosmos 2016 Rocket 4.1 02:28:31 10° NNW 02:34:49 64° W 02:36:28 48° SSW
SL-16 R/B 3.9 02:33:15 10° WNW 02:36:00 18° W 02:36:00 18° W
H-2A R/B 3.9 02:33:28 10° N 02:37:02 27° WNW 02:37:06 27° WNW
Cosmos 1674 3.2 02:37:48 52° NW 02:37:48 52° NW 02:41:10 10° N
Cosmos 2237 Rocket 4.0 02:33:31 10° N 02:38:26 30° NE 02:43:18 10° ESE
NOSS 3-1 (A) 4.4 02:34:58 10° NW 02:42:12 43° WSW 02:44:05 38° SW
ATLAS 2AS CENTAUR R/B 3.4 02:34:40 10° NNW 02:42:41 63° NE 02:50:07 10° SE
Lacrosse 5 rocket 1.9 02:38:44 10° NW 02:42:28 51° W 02:42:28 51° W
IRS-P3 4.1 02:43:58 10° NNE 02:49:20 79° ESE 02:50:55 47° S
Cosmos 1515 Rocket 4.2 02:45:33 10° N 02:49:53 52° E 02:51:31 33° SE
CBERS-1 4.1 02:46:08 10° NNE 02:51:14 69° ESE 02:52:47 44° S
Cosmos 1743 Rocket 3.8 02:50:22 50° SSE 02:51:18 64° E 02:55:42 10° NNE
Cosmos 1300 2.9 02:48:07 10° N 02:51:57 64° E 02:52:24 58° ESE
Cosmos 2221 4.1 02:52:40 10° NW 02:55:22 22° WNW 02:55:22 22° WNW
Cosmos 2227 Rocket 3.4 02:53:34 23° SSE 02:56:09 33° ESE 03:01:10 10° NE
Cosmos 2237 4.3 02:51:01 10° NNW 02:56:34 53° WSW 02:57:42 45° SSW
NPP 3.6 02:51:34 10° NNE 02:56:59 85° ESE 02:58:49 44° S
Cosmos 2322 4.2 02:52:31 10° NW 02:57:40 37° WSW 02:57:54 37° WSW
Cosmos 2123 Rocket 4.2 02:56:27 40° SW 02:58:29 58° W 03:04:36 10° N
Helios 1A Rocket 3.7 02:55:46 10° N 02:59:37 37° WNW 02:59:57 37° W
Lacrosse 5 2.9 02:57:20 24° W 02:59:46 39° NW 03:04:32 10° NE
ARIANE 5 R/B 3.6 02:56:17 10° NNE 03:01:01 37° E 03:03:43 21° SSE
ADEOS Rocket 3.9 02:54:58 10° NNE 03:02:13 59° E 03:07:20 22° S
Cosmos 1954 Rocket 4.5 03:00:23 34° SSE 03:02:24 54° ESE 03:07:32 10° NNE
Cosmos 407 Rocket 3.4 03:04:00 47° SSW 03:05:32 79° WNW 03:10:43 10° NNE
ISS -1.1 03:03:18 10° NW 03:05:55 21° NNE 03:08:31 10° ENE
Cosmos 1447 Rocket 4.4 03:04:32 36° S 03:07:19 88° W 03:13:38 10° N
COSMOS 2428 2.8 03:04:20 10° NNW 03:09:58 56° WSW 03:12:00 37° SSW
Cosmos 1726 2.2 03:06:26 10° NNW 03:10:06 56° W 03:10:06 56° W
Cosmos 2228 Rocket 3.0 03:07:27 10° NNW 03:11:54 69° W 03:12:58 49° SSW
Cosmos 2219 3.4 03:10:48 37° SW 03:12:51 60° WNW 03:18:26 10° NNE
Cosmos 2058 3.3 03:14:39 34° SSE 03:16:07 56° E 03:20:09 10° NNE
Cosmos 676 Rocket 4.0 03:14:54 39° SSW 03:16:58 89° ESE 03:22:18 10° NNE
Cosmos 2233 Rocket 4.0 03:12:07 10° NNW 03:18:24 67° W 03:21:41 29° SSW
Cosmos 1190 Rocket 4.4 03:18:30 35° WSW 03:20:23 52° WNW 03:25:35 10° N
Cosmos 2333 4.4 03:16:18 10° NW 03:21:50 50° WSW 03:24:03 32° SSW
Cosmos 2360 Rocket 3.7 03:19:29 10° NW 03:23:00 19° W 03:23:00 19° W
Cosmos 2082 4.4 03:20:13 23° S 03:23:22 47° ESE 03:28:44 10° NE
Cosmos 1242 Rocket 3.7 03:21:32 10° NNW 03:24:03 27° WNW 03:24:03 27° WNW
Cosmos 1328 Rocket 4.0 03:22:11 10° NNW 03:26:25 44° W 03:27:16 39° SW
Spot 4 Rocket 4.0 03:23:05 10° NNE 03:28:15 81° ESE 03:30:59 29° S
SL-08 R/B 3.9 03:31:19 34° SW 03:32:41 42° W 03:37:23 10° NNW
Cosmos 1455 3.2 03:32:08 10° N 03:35:52 45° ENE 03:39:30 11° SSE
Cosmos 1703 3.3 03:35:50 32° S 03:37:32 76° E 03:41:27 10° NNE
Lacrosse 4 Rocket 4.1 03:39:24 10° ESE 03:40:21 11° ESE 03:41:18 10° E
Meteor 2-10 4.3 03:37:44 10° NNW 03:42:35 47° W 03:44:59 27° SSW
Resurs 1-4 Rocket 2.1 03:38:03 10° NNE 03:43:23 83° WNW 03:46:41 24° SSW
Cosmos 2333 Rocket 2.2 03:37:50 10° NNW 03:43:30 64° WSW 03:49:04 10° S
Cosmos 1151 Rocket 3.2 03:39:58 10° NNW 03:44:10 51° W 03:45:58 30° SSW
SL-14 R/B 4.3 03:43:13 28° WSW 03:44:10 32° WNW 03:47:52 10° N
Cosmos 1464 Rocket 4.0 03:38:35 10° N 03:44:48 88° E 03:50:56 10° S
IRS-1D 3.6 03:39:38 10° N 03:45:00 80° WNW 03:48:18 24° SSW
Cosmos 2151 3.1 03:43:27 33° SW 03:45:01 55° W 03:49:11 10° N
CZ-2D R/B 2.0 03:42:21 10° N 03:47:35 78° WNW 03:50:51 23° SSW
Cosmos 1707 Rocket 4.4 03:46:04 10° N 03:50:18 49° E 03:54:32 10° SSE
UNKNOWN OBJECT B 3.2 03:49:43 10° NNE 03:53:45 62° E 03:56:37 18° S
SL-16 R/B 2.7 03:52:25 16° S 03:57:14 52° W 04:03:16 10° NNW
UNK 4.0 03:54:54 23° SSW 03:57:23 46° W 04:01:50 10° NNW
ADEOS 3.6 03:53:21 10° N 03:58:32 67° WNW 04:02:04 21° SSW
ADEOS II 4.2 03:54:46 10° NE 03:58:55 23° E 04:03:01 10° SE
MOS 1 Rocket 4.0 03:54:37 10° NNE 03:59:37 60° E 04:04:51 10° S
Cosmos 1980 3.7 03:57:05 10° NNW 04:02:40 58° WSW 04:08:13 10° S
Cosmos 2297 Rocket 2.2 03:58:57 20° SSW 04:02:57 88° WNW 04:08:39 10° NNE
SL-8 R/B 3.9 03:59:49 19° WSW 04:03:11 70° NNW 04:07:59 10° ENE
NOSS 7 (D) 4.3 04:02:24 28° SW 04:04:04 88° NW 04:07:24 10° NE
Cosmos 1666 Rocket 4.1 04:00:54 11° S 04:05:04 59° E 04:09:27 10° NNE
CZ-3A R/B 3.7 04:04:35 10° NNW 04:07:06 27° NE 04:13:22 10° E
ERBS 2.8 04:07:24 23° WSW 04:09:11 49° NW 04:12:31 10° NE
Cosmos 2219 Rocket 3.0 04:05:16 10° NW 04:10:11 31° WSW 04:13:56 15° SSW
COBE Rocket 4.5 04:08:46 10° N 04:13:07 39° WNW 04:16:02 18° SW
ATLAS 3B CENTAUR R/B 3.8 04:05:21 13° WSW 04:13:22 27° SSW 04:18:02 10° SE
NOSS 0 Rocket 4.4 04:10:43 10° NW 04:16:22 38° WSW 04:22:02 10° S
Cosmos 1626 3.0 04:15:14 21° SW 04:17:05 33° WNW 04:20:31 10° N
Cosmos 1850 Rocket 4.0 04:13:49 17° SSW 04:17:49 69° WNW 04:23:00 10° NNE
Cosmos 1356 3.7 04:15:42 21° SSW 04:17:50 52° WNW 04:21:17 10° N
Aureole 2 Rocket 3.3 04:15:24 10° NW 04:19:06 38° WSW 04:22:56 10° S
Okean O Rocket 3.5 04:15:59 10° NE 04:19:44 28° E 04:23:29 10° SSE
SL-16 R/B 2.4 04:14:50 10° NNW 04:20:33 79° ENE 04:26:14 10° SSE
Cosmos 1741 Rocket 4.1 04:17:21 16° SSW 04:21:34 67° WNW 04:26:54 10° NNE
GPS 2-04 Rocket1 3.6 04:19:42 18° SW 04:22:06 33° S 04:25:57 10° ESE
Cosmos 1805 Rocket 3.7 04:18:52 15° SSW 04:22:25 58° W 04:26:49 10° N
Cosmos 2237 Rocket 2.5 04:17:20 10° NW 04:22:38 43° WSW 04:27:52 10° S
Cosmos 1140 Rocket 4.3 04:20:46 16° WSW 04:24:25 36° WNW 04:29:14 10° N
CZ-3A R/B 4.2 04:21:53 12° SSW 04:27:21 28° SSE 04:51:44 10° ESE
Cosmos 1570 Rocket 4.2 04:26:52 10° NNW 04:32:05 53° WSW 04:37:15 10° S
NOSS 2-1 (D) 4.1 04:29:44 14° WSW 04:32:41 40° NW 04:36:48 10° NNE
NOSS 2-1 (C) 4.1 04:29:53 15° WSW 04:32:50 41° NW 04:36:58 10° NNE
ATLAS 2AS CENTAUR R/B 3.6 04:26:27 10° NW 04:33:13 32° WSW 04:39:32 10° S
NOSS 3-4 (A) 4.3 04:27:02 10° NNW 04:34:02 68° NE 04:41:30 10° SE
NOSS 3-4 (C) 4.3 04:27:09 10° NNW 04:34:09 68° NE 04:41:35 10° SE
ARIANE 5 R/B 3.7 04:35:41 10° N 04:39:58 28° WNW 04:44:04 11° WSW
Cosmos 2034 Rocket 4.4 04:34:05 10° NNW 04:40:06 47° W 04:46:08 10° SSW
Cosmos 2227 Rocket 3.0 04:35:24 12° WSW 04:40:07 37° WNW 04:45:22 10° N
BREEZE-M DEB (TANK) 3.7 04:34:19 10° W 04:41:52 61° NNW 04:44:58 10° ENE
ISS -3.8 04:39:29 10° NW 04:42:47 87° NNE 04:46:02 10° SE
Lacrosse 5 4.3 04:40:47 10° NW 04:44:00 17° NNW 04:47:15 10° NNE
USA 161 1.7 04:42:56 13° SSW 04:44:25 26° W 04:46:12 10° NW
USA 215 4.3 04:40:41 10° ENE 04:46:44 39° SE 04:52:44 10° SSW
ADEOS Rocket 4.5 04:41:07 10° N 04:47:16 31° WNW 04:53:46 10° WSW
Cosmos 1470 Rocket 3.8 04:44:57 10° S 04:49:15 74° E 04:53:34 10° NNE
Tsikada Rocket 4.3 04:47:07 10° SSW 04:53:15 52° WNW 04:59:31 10° N
Cosmos 1633 Rocket 3.4 04:49:32 10° SSW 04:53:46 48° W 04:58:01 10° N
Cosmos 1869 3.9 04:50:06 10° NNW 04:53:51 37° W 04:57:34 10° SSW
SL-24 R/B 4.2 04:54:21 10° N 04:58:18 46° WNW 05:01:53 10° SW
Sich 1 3.9 04:57:09 10° SW 05:01:10 34° WNW 05:05:11 10° N
CZ-3 R/B 3.8 05:08:14 10° W 05:36:34 42° SSW 05:44:17 10° SE
